Weather History for Oxford, CT

Change the Weather History Date:

Wednesday, October 24, 2012

  Actual Average Record
Temperature  
Mean Temperature 52 °F -  
Max Temperature 53 °F 54 °F 75 °F (2001)
Min Temperature 50 °F 38 °F 24 °F (2002)
Degree Days  
Heating Degree Days 14    
Growing Degree Days 2 (Base 50)    
Moisture  
Dew Point 45 °F    
Average Humidity 78    
Maximum Humidity 88    
Minimum Humidity 58    
Precipitation  
Precipitation 0.04 in - - ()
Sea Level Pressure  
Sea Level Pressure 30.17 in    
Wind  
Wind Speed 2 mph (ENE)    
Max Wind Speed 6 mph    
Max Gust Speed -    
Visibility 7 miles    
Events Rain    
Averages and records for this station are not official NWS values.
T = Trace of Precipitation, MM = Missing Value Source: NWS Daily Summary

Daily Weather History Graph

Daily Weather History Graph

Search for Another Location

Airport:

Trip Planner

Search our weather history database for the weather conditions in past years. The results will help you decide how hot, cold, wet, or windy it might be!

Date:

Astronomy

Oct. 24, 2012 Rise Set
Actual Time 7:15 AM EDT 5:57 PM EDT
Civil Twilight 6:46 AM EDT 6:25 PM EDT
Nautical Twilight 6:14 AM EDT 6:58 PM EDT
Astronomical Twilight 5:42 AM EDT 7:30 PM EDT
Moon 3:14 PM EDT (10/24) 2:04 AM EDT (10/24)
Length of Visible Light 11h 38m
Length of Day
10h 42m
Waxing Gibbous, 76% of the Moon is Illuminated
Oct 24
Waxing Gibbous
Oct 29
Full
Nov 6
Last Quarter
Nov 13
New
Nov 20
First Quarter

Hourly Weather History & Observations

Time (EDT) Temp. Dew Point Humidity Pressure Visibility Wind Dir Wind Speed Gust Speed Precip Events Conditions
12:15 AM 51.8 °F 46.4 °F 82% 30.14 in 8.0 mi Calm Calm - N/A   Overcast
12:35 AM 51.8 °F 46.4 °F 82% 30.14 in 9.0 mi Calm Calm - N/A   Overcast
12:55 AM 51.8 °F 48.2 °F 88% 30.14 in 5.0 mi Calm Calm - N/A   Overcast
1:15 AM 51.8 °F 48.2 °F 88% 30.14 in 5.0 mi Calm Calm - N/A   Overcast
1:35 AM 51.8 °F 48.2 °F 88% 30.14 in 2.5 mi NNE 4.6 mph - N/A   Overcast
1:55 AM 51.8 °F 48.2 °F 88% 30.15 in 3.0 mi NE 4.6 mph - 0.02 in   Overcast
2:15 AM 51.8 °F 48.2 °F 88% 30.14 in 5.0 mi ENE 4.6 mph - 0.01 in   Overcast
2:35 AM 51.8 °F 48.2 °F 88% 30.15 in 5.0 mi NE 4.6 mph - 0.02 in   Overcast
2:55 AM 51.8 °F 48.2 °F 88% 30.14 in 3.0 mi NE 4.6 mph - 0.02 in   Overcast
3:15 AM 51.8 °F 48.2 °F 88% 30.14 in 5.0 mi NE 3.5 mph - N/A   Overcast
3:35 AM 51.8 °F 48.2 °F 88% 30.14 in 4.0 mi ENE 3.5 mph - N/A   Overcast
3:56 AM 51.8 °F 48.2 °F 88% 30.14 in 3.0 mi ENE 3.5 mph - N/A   Overcast
4:15 AM 51.8 °F 48.2 °F 88% 30.14 in 4.0 mi East 4.6 mph - N/A   Overcast
4:35 AM 51.8 °F 48.2 °F 88% 30.14 in 3.0 mi East 3.5 mph - N/A   Overcast
5:15 AM 51.8 °F 48.2 °F 88% 30.15 in 4.0 mi ESE 4.6 mph - N/A   Overcast
5:35 AM 51.8 °F 48.2 °F 88% 30.15 in 5.0 mi East 3.5 mph - N/A   Overcast
5:45 AM 51.8 °F 48.2 °F 88% 30.15 in 3.0 mi East 3.5 mph - N/A Rain Light Rain
6:45 AM 51.8 °F 48.2 °F 88% 30.17 in 4.0 mi ESE 3.5 mph - N/A Rain Light Rain
7:25 AM 50.0 °F 46.4 °F 87% 30.17 in 7.0 mi ENE 4.6 mph - N/A   Overcast
7:45 AM 51.8 °F 46.4 °F 82% 30.17 in 7.0 mi Calm Calm - N/A   Overcast
8:45 AM 51.8 °F 46.4 °F 82% 30.19 in 6.0 mi Calm Calm - N/A   Overcast
9:45 AM 50.0 °F 44.6 °F 82% 30.19 in 10.0 mi NE 5.8 mph - N/A   Overcast
10:45 AM 51.8 °F 44.6 °F 76% 30.19 in 10.0 mi ENE 5.8 mph - N/A   Overcast
12:45 PM 53.6 °F 42.8 °F 67% 30.17 in 10.0 mi ENE 5.8 mph - N/A   Overcast
1:45 PM 53.6 °F 39.2 °F 58% 30.15 in 10.0 mi East 4.6 mph - N/A   Overcast
2:45 PM 53.6 °F 39.2 °F 58% 30.15 in 10.0 mi East 4.6 mph - N/A   Overcast
3:45 PM 53.6 °F 41.0 °F 62% 30.16 in 10.0 mi ENE 5.8 mph - N/A   Overcast
4:45 PM 51.8 °F 39.2 °F 62% 30.16 in 10.0 mi East 4.6 mph - N/A   Overcast
5:45 PM 51.8 °F 39.2 °F 62% 30.17 in 10.0 mi Calm Calm - N/A   Overcast
6:45 PM 51.8 °F 42.8 °F 71% 30.20 in 10.0 mi Calm Calm - N/A   Overcast
7:55 PM 51.8 °F 42.8 °F 71% 30.21 in 10.0 mi Calm Calm - N/A   Overcast
8:45 PM 51.8 °F 42.8 °F 71% 30.20 in 10.0 mi Calm Calm - N/A   Overcast
9:15 PM 51.8 °F 42.8 °F 71% 30.22 in 10.0 mi Calm Calm - N/A   Overcast
9:35 PM 51.8 °F 42.8 °F 71% 30.24 in 10.0 mi NNW 3.5 mph - N/A   Overcast
9:55 PM 51.8 °F 42.8 °F 71% 30.23 in 10.0 mi Calm Calm - N/A   Overcast
10:15 PM 51.8 °F 42.8 °F 71% 30.23 in 10.0 mi Calm Calm - N/A   Overcast
10:35 PM 51.8 °F 42.8 °F 71% 30.23 in 10.0 mi Calm Calm - N/A   Overcast
10:55 PM 51.8 °F 42.8 °F 71% 30.24 in 10.0 mi Calm Calm - N/A   Overcast
11:15 PM 51.8 °F 42.8 °F 71% 30.23 in 10.0 mi Calm Calm - N/A   Overcast
11:35 PM 51.8 °F 44.6 °F 76% 30.23 in 10.0 mi Calm Calm - N/A   Overcast
11:55 PM 51.8 °F 42.8 °F 71% 30.23 in 10.0 mi Calm Calm - N/A   Overcast